Lid_Strength_Index
3 3 4 3 3 4 7 11 10 7 7 10 11 11 9 7 7 7 7 8 9 10 10 11 11 11 9 6 7 10 10 12 14 12 9 9 10 12 12 16 17 15 17 16
4 4 4 4 4 4 9 11 10 5 7 12 11 9 7 7 8 8 9 9 8 9 10 12 10 9 7 6 8 10 11 14 17 14 13 11 12 11 11 12 14 16 18 16
4 5 5 5 5 5 8 10 11 9 9 10 11 12 11 10 8 7 8 8 8 10 10 10 11 10 7 7 7 6 8 14 15 16 13 12 13 12 11 12 16 16 15 14
5 5 4 4 4 4 9 9 10 9 12 10 11 11 11 10 10 8 8 9 9 10 12 12 11 9 9 7 6 8 11 14 13 12 11 11 12 12 11 13 13 15 14 13
4 3 3 4 4 4 6 9 8 8 9 9 10 10 10 9 8 9 10 10 8 9 11 11 12 10 11 11 9 10 11 13 13 14 11 11 13 11 11 11 11 12 12 13
3 3 3 3 3 4 9 7 7 8 9 9 10 10 9 8 8 8 7 8 9 9 9 8 7 7 8 9 10 11 12 12 14 16 12 12 15 12 11 11 10 11 13 11
3 3 3 3 3 3 7 7 7 9 11 9 9 8 8 8 8 9 7 7 10 7 5 7 7 8 8 8 8 9 11 13 14 16 14 19 13 8 9 10 10 9 9 9
3 3 3 3 3 3 5 7 7 8 10 8 8 8 8 8 8 8 8 6 6 7 8 10 11 11 11 10 9 10 10 12 15 17 18 14 12 10 11 12 12 9 9 8
4 3 3 3 3 3 3 7 6 7 9 10 6 8 8 10 10 9 8 6 6 8 10 11 15 15 13 13 13 9 9 10 13 14 18 19 13 9 7 8 15 8 8 8
4 4 3 3 3 3 2 6 6 6 9 7 7 9 9 8 9 10 10 8 7 8 11 13 14 14 11 15 16 15 14 13 15 15 16 14 9 8 7 15 13 8 7 8
3 4 3 3 4 3 2 6 5 6 8 7 6 5 8 8 9 11 9 10 9 9 12 12 13 14 12 13 13 13 14 15 15 14 16 18 7 8 13 10 9 8 8 9
3 3 3 3 4 3 2 7 4 4 6 6 5 5 5 5 6 8 9 8 9 9 11 11 11 12 11 12 15 10 14 12 13 12 13 9 8 9 8 8 8 8 9 9
3 4 4 4 4 3 2 6 4 6 7 7 7 7 5 4 4 5 8 8 7 8 8 10 9 12 11 14 13 12 10 9 12 12 10 9 8 8 8 8 8 9 9 9
3 4 4 4 4 3 1 6 4 6 7 10 8 4 5 4 4 5 6 5 6 7 8 10 11 12 9 11 11 11 9 10 11 11 10 9 8 8 8 7 8 8 9 9
3 3 4 4 3 2 2 4 5 6 7 10 9 7 6 6 5 5 6 6 7 8 9 10 10 10 10 11 11 12 10 11 11 12 8 9 9 8 8 8 9 9 9 9
3 3 3 3 3 3 6 6 4 7 6 8 12 8 7 6 6 6 6 6 7 8 8 9 9 9 10 12 13 9 8 8 8 8 7 8 8 8 7 8 8 8 9 8
3 3 3 2 2 4 7 8 6 5 6 8 11 11 7 6 7 7 7 7 8 8 9 9 9 10 10 12 13 10 8 7 7 7 7 9 8 9 8 8 8 8 8 7
3 3 3 2 3 4 6 6 4 5 7 8 12 11 9 6 9 9 8 9 9 9 9 9 10 10 11 13 11 8 7 7 7 7 7 7 8 8 8 8 9 9 8 8
2 2 2 4 5 6 5 2 3 5 7 11 11 12 12 7 9 9 8 9 10 9 10 10 10 11 12 10 9 7 7 7 8 8 8 8 8 9 9 9 10 9 8 9
2 3 6 8 6 3 3 6 7 8 9 10 11 10 11 9 9 10 10 10 11 12 10 9 11 11 9 8 7 6 6 7 7 9 9 9 9 9 10 10 9 8 8 9
3 6 7 6 3 5 7 10 11 11 12 11 10 10 10 8 10 10 9 11 11 13 11 11 13 12 9 7 7 6 7 7 7 6 7 8 9 9 10 9 8 8 9 10
3 4 4 3 6 8 10 12 12 13 12 11 11 10 9 8 7 8 8 11 11 13 10 11 13 10 9 8 8 7 7 7 7 6 7 8 9 9 9 8 8 8 9 8
3 4 5 7 9 11 11 13 13 14 11 10 9 10 7 8 7 8 9 11 12 10 12 13 11 9 8 8 8 8 7 6 7 7 8 8 8 7 7 8 8 9 9 7
5 7 10 9 11 11 12 11 11 9 9 9 9 10 8 7 9 10 12 11 11 13 14 13 10 9 8 8 8 8 8 7 8 8 8 8 8 7 7 7 8 9 8 6
7 7 12 10 9 9 9 8 8 8 7 8 9 9 8 9 9 10 11 13 14 12 13 11 9 9 8 8 8 8 8 8 8 8 8 8 9 8 8 8 9 8 7 5
6 6 8 8 8 8 7 8 8 7 7 7 7 10 10 10 10 12 12 12 14 12 11 9 9 8 8 8 8 7 7 7 8 8 8 8 8 8 8 8 8 7 6 5
6 8 7 8 8 8 7 7 8 7 7 9 10 11 12 11 13 13 12 12 11 10 9 8 8 8 8 7 7 6 7 7 7 8 8 9 8 8 8 9 8 6 5 4